Time,TemperatureF,DewpointF,PressureIn,WindDirection,WindDirectionDegrees,WindSpeedMPH,WindSpeedGustMPH,Humidity,HourlyPrecipIn,Conditions,Clouds,dailyrainin,SoftwareType,DateUTC
2013-08-02 00:01:00,63.0,58.0,30.02,NW,306,0.0,0.0,84,0.00,,,0.00,,2013-08-02 04:01:00,
2013-08-02 00:02:00,62.0,57.0,30.02,NW,306,0.0,0.0,85,0.00,,,0.00,,2013-08-02 04:02:00,
2013-08-02 00:33:00,61.0,57.0,30.03,NW,306,0.0,0.0,87,0.00,,,0.00,,2013-08-02 04:33:00,
2013-08-02 00:43:00,60.0,56.0,30.02,NW,306,0.0,1.0,87,0.00,,,0.00,,2013-08-02 04:43:00,
2013-08-02 00:53:00,60.0,56.0,30.02,NW,306,0.0,1.0,87,0.00,,,0.00,,2013-08-02 04:53:00,
2013-08-02 01:02:00,60.0,56.0,30.03,NW,306,0.0,0.0,88,0.00,,,0.00,,2013-08-02 05:02:00,
2013-08-02 01:12:00,60.0,56.0,30.03,NW,306,0.0,0.0,88,0.00,,,0.00,,2013-08-02 05:12:00,
2013-08-02 01:22:00,60.0,57.0,30.03,NW,306,0.0,0.0,89,0.00,,,0.00,,2013-08-02 05:22:00,
2013-08-02 01:32:00,60.0,57.0,30.03,SSW,207,0.0,2.0,90,0.00,,,0.00,,2013-08-02 05:32:00,
2013-08-02 01:43:00,60.0,57.0,30.03,SSW,207,0.0,2.0,90,0.00,,,0.00,,2013-08-02 05:43:00,
2013-08-02 01:53:00,61.0,58.0,30.03,SSW,207,0.0,2.0,89,0.00,,,0.00,,2013-08-02 05:53:00,
2013-08-02 02:02:00,61.0,57.0,30.03,SSW,207,0.0,1.0,88,0.00,,,0.00,,2013-08-02 06:02:00,
2013-08-02 02:12:00,61.0,57.0,30.03,SSW,206,1.0,3.0,87,0.00,,,0.00,,2013-08-02 06:12:00,
2013-08-02 02:22:00,61.0,57.0,30.02,SSW,206,0.0,2.0,86,0.00,,,0.00,,2013-08-02 06:22:00,
2013-08-02 02:33:00,61.0,56.0,30.01,SSW,207,0.0,0.0,85,0.00,,,0.00,,2013-08-02 06:33:00,
2013-08-02 02:43:00,61.0,56.0,30.01,SSW,207,0.0,1.0,85,0.00,,,0.00,,2013-08-02 06:43:00,
2013-08-02 02:52:00,60.0,55.0,30.01,SSW,207,0.0,1.0,85,0.00,,,0.00,,2013-08-02 06:52:00,
2013-08-02 03:02:00,59.0,55.0,30.01,SSW,207,0.0,0.0,86,0.00,,,0.00,,2013-08-02 07:02:00,
2013-08-02 03:12:00,59.0,55.0,30.01,SSW,207,0.0,2.0,87,0.00,,,0.00,,2013-08-02 07:12:00,
2013-08-02 03:22:00,59.0,55.0,30.01,SSW,207,1.0,2.0,88,0.00,,,0.00,,2013-08-02 07:22:00,
2013-08-02 03:33:00,59.0,56.0,30.01,SSW,207,0.0,2.0,89,0.00,,,0.00,,2013-08-02 07:33:00,
2013-08-02 03:44:00,59.0,55.0,30.01,SSW,207,0.0,0.0,88,0.00,,,0.00,,2013-08-02 07:44:00,
2013-08-02 03:53:00,58.0,54.0,30.01,SSW,207,0.0,0.0,88,0.00,,,0.00,,2013-08-02 07:53:00,
2013-08-02 04:02:00,57.0,54.0,30.01,SSW,206,0.0,1.0,89,0.00,,,0.00,,2013-08-02 08:02:00,
2013-08-02 04:12:00,58.0,55.0,30.02,SSW,206,0.0,1.0,90,0.00,,,0.00,,2013-08-02 08:12:00,
2013-08-02 04:22:00,57.0,54.0,30.01,SSW,207,0.0,0.0,89,0.00,,,0.00,,2013-08-02 08:22:00,
2013-08-02 04:33:00,57.0,54.0,30.02,SSW,207,0.0,1.0,91,0.00,,,0.00,,2013-08-02 08:33:00,
2013-08-02 04:43:00,57.0,54.0,30.02,SSW,207,0.0,1.0,91,0.00,,,0.00,,2013-08-02 08:43:00,
2013-08-02 04:54:00,56.0,53.0,30.02,SSW,207,0.0,0.0,91,0.00,,,0.00,,2013-08-02 08:54:00,
2013-08-02 05:02:00,56.0,53.0,30.02,SSW,207,0.0,1.0,91,0.00,,,0.00,,2013-08-02 09:02:00,
2013-08-02 05:12:00,56.0,54.0,30.03,SSW,206,0.0,1.0,92,0.00,,,0.00,,2013-08-02 09:12:00,
2013-08-02 05:23:00,55.0,53.0,30.02,SSW,207,0.0,2.0,92,0.00,,,0.00,,2013-08-02 09:23:00,
2013-08-02 05:33:00,55.0,53.0,30.02,SSW,207,0.0,2.0,92,0.00,,,0.00,,2013-08-02 09:33:00,
2013-08-02 05:53:00,55.0,53.0,30.03,SSW,207,0.0,0.0,93,0.00,,,0.00,,2013-08-02 09:53:00,
2013-08-02 06:03:00,54.0,52.0,30.03,SSW,206,0.0,0.0,93,0.00,,,0.00,,2013-08-02 10:03:00,
2013-08-02 06:12:00,54.0,52.0,30.03,SSW,206,0.0,0.0,93,0.00,,,0.00,,2013-08-02 10:12:00,
2013-08-02 06:33:00,54.0,52.0,30.03,SSW,206,0.0,1.0,93,0.00,,,0.00,,2013-08-02 10:33:00,
2013-08-02 06:43:00,54.0,52.0,30.03,SSW,207,0.0,0.0,94,0.00,,,0.00,,2013-08-02 10:43:00,
2013-08-02 06:52:00,54.0,52.0,30.03,SSW,207,0.0,0.0,94,0.00,,,0.00,,2013-08-02 10:52:00,
2013-08-02 07:02:00,54.0,52.0,30.02,SSW,207,1.0,2.0,94,0.00,,,0.00,,2013-08-02 11:02:00,
2013-08-02 07:32:00,56.0,54.0,30.03,SSW,207,0.0,1.0,94,0.00,,,0.00,,2013-08-02 11:32:00,
2013-08-02 07:43:00,56.0,55.0,30.03,SSW,207,0.0,1.0,95,0.00,,,0.00,,2013-08-02 11:43:00,
2013-08-02 07:52:00,56.0,55.0,30.03,SSW,207,0.0,1.0,95,0.00,,,0.00,,2013-08-02 11:52:00,
2013-08-02 08:02:00,57.0,56.0,30.03,SSW,207,0.0,2.0,95,0.00,,,0.00,,2013-08-02 12:02:00,
2013-08-02 08:12:00,59.0,58.0,30.03,SSW,207,0.0,0.0,95,0.00,,,0.00,,2013-08-02 12:12:00,
2013-08-02 08:33:00,62.0,60.0,30.03,SSW,207,0.0,2.0,94,0.00,,,0.00,,2013-08-02 12:33:00,
2013-08-02 08:43:00,62.0,60.0,30.03,SE,146,1.0,3.0,92,0.00,,,0.00,,2013-08-02 12:43:00,
2013-08-02 08:52:00,63.0,60.0,30.03,SE,146,2.0,4.0,91,0.00,,,0.00,,2013-08-02 12:52:00,
2013-08-02 09:03:00,63.0,60.0,30.02,SE,129,2.0,5.0,89,0.00,,,0.00,,2013-08-02 13:03:00,
2013-08-02 09:12:00,63.0,60.0,30.02,SE,129,2.0,5.0,89,0.00,,,0.00,,2013-08-02 13:12:00,
2013-08-02 09:33:00,64.0,60.0,30.02,SSE,167,1.0,6.0,88,0.00,,,0.00,,2013-08-02 13:33:00,
2013-08-02 09:43:00,64.0,60.0,30.02,SSE,154,3.0,9.0,88,0.00,,,0.00,,2013-08-02 13:43:00,
2013-08-02 09:52:00,64.0,60.0,30.02,SSE,154,3.0,9.0,88,0.00,,,0.00,,2013-08-02 13:52:00,
2013-08-02 10:02:00,65.0,62.0,30.04,SSE,160,0.0,5.0,90,0.00,,,0.00,,2013-08-02 14:02:00,
2013-08-02 10:12:00,65.0,62.0,30.04,SSE,160,0.0,5.0,90,0.00,,,0.00,,2013-08-02 14:12:00,
2013-08-02 10:22:00,65.0,62.0,30.04,South,175,2.0,4.0,89,0.00,,,0.00,,2013-08-02 14:22:00,
2013-08-02 10:32:00,66.0,62.0,30.04,SSW,210,4.0,7.0,87,0.00,,,0.00,,2013-08-02 14:32:00,
2013-08-02 10:43:00,66.0,61.0,30.03,SSE,161,5.0,8.0,85,0.00,,,0.00,,2013-08-02 14:43:00,
2013-08-02 10:53:00,66.0,62.0,30.03,SE,146,3.0,9.0,87,0.00,,,0.00,,2013-08-02 14:53:00,
2013-08-02 11:03:00,67.0,62.0,30.03,SSE,165,4.0,7.0,85,0.00,,,0.00,,2013-08-02 15:03:00,
2013-08-02 11:12:00,67.0,62.0,30.03,SSE,150,3.0,6.0,84,0.00,,,0.00,,2013-08-02 15:12:00,
2013-08-02 11:22:00,67.0,62.0,30.07,WNW,294,0.0,4.0,85,0.00,,,0.00,,2013-08-02 15:22:00,
2013-08-02 11:32:00,67.0,63.0,30.07,West,276,0.0,5.0,87,0.00,,,0.00,,2013-08-02 15:32:00,
2013-08-02 11:43:00,66.0,62.0,30.10,West,280,5.0,9.0,88,0.00,,,0.00,,2013-08-02 15:43:00,
2013-08-02 11:52:00,65.0,62.0,30.10,NW,321,3.0,13.0,90,0.00,,,0.00,,2013-08-02 15:52:00,
2013-08-02 12:02:00,65.0,62.0,30.08,WNW,291,0.0,3.0,91,0.00,,,0.00,,2013-08-02 16:02:00,
2013-08-02 12:12:00,65.0,63.0,30.08,WNW,291,0.0,1.0,92,0.00,,,0.00,,2013-08-02 16:12:00,
2013-08-02 12:32:00,66.0,64.0,30.07,NNE,22,3.0,4.0,93,0.00,,,0.00,,2013-08-02 16:32:00,
2013-08-02 12:43:00,67.0,64.0,30.07,NNE,22,1.0,4.0,90,0.00,,,0.00,,2013-08-02 16:43:00,
2013-08-02 12:52:00,67.0,64.0,30.08,NNE,22,0.0,4.0,89,0.00,,,0.00,,2013-08-02 16:52:00,
2013-08-02 13:12:00,67.0,64.0,30.06,SE,129,3.0,5.0,90,0.00,,,0.00,,2013-08-02 17:12:00,
2013-08-02 13:22:00,67.0,64.0,30.06,SE,129,3.0,5.0,90,0.00,,,0.00,,2013-08-02 17:22:00,
2013-08-02 13:35:00,67.0,64.0,30.06,ESE,123,3.0,5.0,89,0.00,,,0.00,,2013-08-02 17:35:00,
2013-08-02 13:52:00,68.0,64.0,30.05,SSE,151,5.0,6.0,87,0.00,,,0.00,,2013-08-02 17:52:00,
2013-08-02 14:22:00,69.0,64.0,30.05,SSE,157,4.0,9.0,85,0.00,,,0.00,,2013-08-02 18:22:00,
2013-08-02 14:32:00,69.0,65.0,30.04,SSE,165,3.0,9.0,86,0.00,,,0.00,,2013-08-02 18:32:00,
2013-08-02 14:43:00,69.0,64.0,30.02,SE,142,6.0,11.0,85,0.00,,,0.00,,2013-08-02 18:43:00,
2013-08-02 14:52:00,69.0,64.0,30.02,SE,142,6.0,11.0,85,0.00,,,0.00,,2013-08-02 18:52:00,
2013-08-02 15:12:00,69.0,65.0,30.02,ESE,111,6.0,10.0,87,0.00,,,0.00,,2013-08-02 19:12:00,
2013-08-02 15:32:00,70.0,66.0,30.01,SE,130,1.0,9.0,86,0.00,,,0.00,,2013-08-02 19:32:00,
2013-08-02 15:43:00,70.0,66.0,30.01,ESE,119,5.0,7.0,86,0.00,,,0.00,,2013-08-02 19:43:00,
2013-08-02 15:52:00,70.0,66.0,30.01,ESE,119,5.0,7.0,86,0.00,,,0.00,,2013-08-02 19:52:00,
2013-08-02 16:02:00,72.0,67.0,29.99,ESE,115,8.0,13.0,84,0.00,,,0.00,,2013-08-02 20:02:00,
2013-08-02 17:32:00,79.0,67.0,29.94,South,169,11.0,25.0,67,0.00,,,0.00,,2013-08-02 21:32:00,
2013-08-02 17:53:00,79.0,68.0,29.94,SE,138,9.0,16.0,70,0.00,,,0.00,,2013-08-02 21:53:00,
2013-08-02 18:02:00,78.0,67.0,29.93,SSW,193,9.0,18.0,70,0.00,,,0.00,,2013-08-02 22:02:00,
2013-08-02 18:12:00,78.0,67.0,29.93,SSW,193,9.0,18.0,70,0.00,,,0.00,,2013-08-02 22:12:00,
2013-08-02 18:22:00,78.0,68.0,29.93,South,172,10.0,17.0,71,0.00,,,0.00,,2013-08-02 22:22:00,
2013-08-02 18:32:00,77.0,67.0,29.94,SE,138,12.0,17.0,72,0.00,,,0.00,,2013-08-02 22:32:00,
2013-08-02 18:52:00,74.0,68.0,29.96,SSW,199,2.0,9.0,82,0.00,,,0.00,,2013-08-02 22:52:00,
2013-08-02 19:02:00,73.0,68.0,29.97,WSW,252,1.0,6.0,85,0.00,,,0.00,,2013-08-02 23:02:00,
2013-08-02 19:12:00,72.0,68.0,29.97,South,177,4.0,9.0,88,0.00,,,0.00,,2013-08-02 23:12:00,
2013-08-02 19:22:00,71.0,68.0,29.97,South,171,9.0,16.0,90,0.00,,,0.00,,2013-08-02 23:22:00,
2013-08-02 19:32:00,70.0,67.0,29.96,South,177,10.0,18.0,91,0.00,,,0.00,,2013-08-02 23:32:00,
2013-08-02 19:43:00,70.0,68.0,29.96,South,179,6.0,14.0,92,0.00,,,0.00,,2013-08-02 23:43:00,
2013-08-02 19:53:00,70.0,68.0,29.96,South,175,4.0,10.0,92,0.00,,,0.00,,2013-08-02 23:53:00,
2013-08-02 20:02:00,70.0,68.0,29.96,South,182,4.0,6.0,92,0.00,,,0.00,,2013-08-03 00:02:00,
2013-08-02 20:12:00,70.0,68.0,29.97,South,175,2.0,7.0,92,0.00,,,0.00,,2013-08-03 00:12:00,
2013-08-02 20:22:00,70.0,68.0,29.97,South,176,0.0,2.0,92,0.00,,,0.00,,2013-08-03 00:22:00,
2013-08-02 20:33:00,70.0,68.0,29.97,South,176,0.0,0.0,93,0.00,,,0.00,,2013-08-03 00:33:00,
2013-08-02 20:43:00,69.0,67.0,29.99,South,175,1.0,2.0,93,0.00,,,0.00,,2013-08-03 00:43:00,
2013-08-02 20:52:00,69.0,67.0,29.99,South,175,7.0,12.0,93,0.00,,,0.00,,2013-08-03 00:52:00,
2013-08-02 21:03:00,69.0,67.0,29.98,SSW,194,4.0,11.0,92,0.00,,,0.00,,2013-08-03 01:03:00,
2013-08-02 21:12:00,69.0,67.0,30.00,SW,215,4.0,11.0,92,0.00,,,0.00,,2013-08-03 01:12:00,
2013-08-02 21:22:00,69.0,67.0,30.00,SW,225,3.0,14.0,92,0.00,,,0.00,,2013-08-03 01:22:00,
2013-08-02 21:32:00,68.0,66.0,30.00,South,188,4.0,10.0,93,0.00,,,0.00,,2013-08-03 01:32:00,
2013-08-02 21:42:00,68.0,66.0,30.00,SW,233,6.0,11.0,93,0.00,,,0.00,,2013-08-03 01:42:00,
2013-08-02 21:53:00,67.0,65.0,30.00,South,188,4.0,8.0,94,0.00,,,0.00,,2013-08-03 01:53:00,
2013-08-02 22:02:00,67.0,65.0,30.01,South,169,6.0,14.0,94,0.00,,,0.00,,2013-08-03 02:02:00,
2013-08-02 22:12:00,67.0,66.0,30.00,South,178,6.0,10.0,95,0.00,,,0.00,,2013-08-03 02:12:00,
2013-08-02 22:22:00,67.0,66.0,30.00,South,182,4.0,8.0,95,0.00,,,0.00,,2013-08-03 02:22:00,
2013-08-02 22:32:00,67.0,66.0,30.00,SSE,163,4.0,6.0,95,0.00,,,0.00,,2013-08-03 02:32:00,
2013-08-02 22:43:00,67.0,66.0,30.00,South,177,3.0,6.0,95,0.00,,,0.00,,2013-08-03 02:43:00,
2013-08-02 22:52:00,67.0,66.0,30.00,South,177,3.0,6.0,95,0.00,,,0.00,,2013-08-03 02:52:00,
2013-08-02 23:02:00,67.0,66.0,30.00,South,174,2.0,5.0,95,0.00,,,0.00,,2013-08-03 03:02:00,
2013-08-02 23:53:00,67.0,66.0,30.01,West,275,0.0,1.0,96,0.00,,,0.00,,2013-08-03 03:53:00,